Odi Airport

Jump to: basic info | weather | comments

Related pages: nearby airports | nearby navaids | notams | map

Basic information (top)

Codes: FAIO
Location: lon -25.549999, lat 27.933001, elev 3,862 ft / 1,177 m msl
Status: small_airport

Weather (top)

Current conditions for Wonderboom Airport 17nm (31km) ESE (rec'd 2014/11/01 03:00Z):

FAWB 010300Z AUTO 09006KT //// // ////// 18/12 Q1020

Airport forecast for Wonderboom Airport 17nm (31km) ESE (rec'd 2014/10/14 10:00Z):

TAF FAWB 140900Z 1410/1418 35010KT 9999 SCT040 PROB30 
      TEMPO 1414/1418 -TSRA FEW040CB TX31/1413ZTN26/1418Z

Latest comments (top)

Runway Details: Runways: 10 & 29 Runway Length = ... [read]

More... (top)

See also NOTAMs and nearby airports and navaids, or visit the Odi Airport page at the main OurAirports website..